| time (UTC) | temp F | wind direction | speed MPH | gust MPH | rain 1hr in | rain 24hr in | rain mn in | humidity % | barometer mb |
| 20260508193535 | 60 | 23 | 0.0 | 2.0 | 0.00 | 0.02 | 0.02 | 87 | 1015.2 |
| 20260508192533 | 60 | 0.0 | 2.0 | 0.00 | 0.04 | 0.02 | 86 | 1015.2 | |
| 20260508191530 | 60 | 120 | 2.0 | 2.0 | 0.00 | 0.04 | 0.02 | 85 | 1015.2 |
| 20260508190527 | 61 | 98 | 1.0 | 2.0 | 0.00 | 0.04 | 0.02 | 84 | 1015.2 |
| 20260508185524 | 61 | 172 | 1.0 | 4.0 | 0.00 | 0.04 | 0.02 | 83 | 1015.3 |
| 20260508184522 | 61 | 91 | 1.0 | 2.0 | 0.00 | 0.05 | 0.02 | 82 | 1015.3 |
| 20260508183519 | 62 | 293 | 1.0 | 4.0 | 0.00 | 0.06 | 0.02 | 81 | 1015.0 |
| 20260508182517 | 62 | 321 | 1.0 | 2.0 | 0.00 | 0.06 | 0.02 | 79 | 1014.8 |
| 20260508181614 | 63 | 280 | 1.0 | 4.0 | 0.00 | 0.07 | 0.02 | 79 | 1014.8 |
| 20260508180612 | 63 | 64 | 1.0 | 2.0 | 0.00 | 0.09 | 0.02 | 77 | 1014.7 |
| 20260508175609 | 64 | 270 | 1.0 | 4.0 | 0.00 | 0.13 | 0.02 | 76 | 1014.7 |
| 20260508174606 | 64 | 244 | 2.0 | 6.0 | 0.00 | 0.19 | 0.02 | 75 | 1014.6 |
| 20260508173644 | 65 | 254 | 2.0 | 9.0 | 0.00 | 0.21 | 0.02 | 73 | 1014.6 |
| 20260508172601 | 65 | 258 | 3.0 | 8.0 | 0.00 | 0.25 | 0.02 | 72 | 1014.8 |
| 20260508171559 | 67 | 269 | 2.0 | 6.0 | 0.00 | 0.27 | 0.02 | 70 | 1014.6 |
| 20260508170556 | 67 | 229 | 3.0 | 8.0 | 0.00 | 0.32 | 0.02 | 69 | 1014.7 |
| 20260508165553 | 67 | 248 | 4.0 | 7.0 | 0.00 | 0.52 | 0.02 | 67 | 1014.7 |
| 20260508164611 | 68 | 239 | 2.0 | 7.0 | 0.00 | 0.89 | 0.02 | 67 | 1014.6 |
| 20260508163548 | 69 | 326 | 1.0 | 4.0 | 0.00 | 1.20 | 0.02 | 64 | 1014.6 |
| 20260508162546 | 68 | 265 | 2.0 | 6.0 | 0.00 | 1.23 | 0.02 | 66 | 1014.6 |
| 20260508161543 | 68 | 246 | 2.0 | 8.0 | 0.00 | 1.23 | 0.02 | 65 | 1014.7 |
| 20260508160540 | 68 | 259 | 4.0 | 8.0 | 0.00 | 1.23 | 0.02 | 67 | 1014.8 |
| 20260508155537 | 68 | 262 | 3.0 | 6.0 | 0.00 | 1.23 | 0.02 | 65 | 1014.6 |
| 20260508154535 | 69 | 203 | 4.0 | 8.0 | 0.00 | 1.23 | 0.02 | 65 | 1014.5 |
| 20260508153532 | 69 | 204 | 3.0 | 7.0 | 0.00 | 1.23 | 0.02 | 64 | 1014.3 |
| 20260508152530 | 69 | 190 | 4.0 | 9.0 | 0.00 | 1.23 | 0.02 | 65 | 1014.4 |
| 20260508151527 | 70 | 236 | 4.0 | 9.0 | 0.00 | 1.23 | 0.02 | 63 | 1014.1 |
| 20260508150524 | 70 | 183 | 3.0 | 8.0 | 0.00 | 1.23 | 0.02 | 62 | 1014.3 |
| 20260508145522 | 70 | 199 | 3.0 | 9.0 | 0.00 | 1.23 | 0.02 | 61 | 1014.3 |
| 20260508144519 | 71 | 209 | 3.0 | 7.0 | 0.00 | 1.23 | 0.02 | 61 | 1014.4 |
| 20260508143516 | 72 | 177 | 3.0 | 7.0 | 0.00 | 1.23 | 0.02 | 60 | 1014.3 |
| 20260508142614 | 72 | 210 | 3.0 | 8.0 | 0.00 | 1.23 | 0.02 | 59 | 1014.3 |
| 20260508141631 | 73 | 220 | 3.0 | 6.0 | 0.00 | 1.23 | 0.02 | 58 | 1014.3 |
| 20260508140609 | 73 | 238 | 3.0 | 6.0 | 0.00 | 1.23 | 0.02 | 58 | 1014.5 |
| 20260508135606 | 74 | 186 | 2.0 | 4.0 | 0.00 | 1.23 | 0.02 | 58 | 1014.4 |
| 20260508134604 | 73 | 260 | 2.0 | 4.0 | 0.00 | 1.23 | 0.02 | 55 | 1014.6 |
| 20260508133601 | 73 | 203 | 0.0 | 2.0 | 0.00 | 1.23 | 0.02 | 55 | 1014.6 |
| 20260508132558 | 70 | 341 | 2.0 | 4.0 | 0.02 | 1.23 | 0.02 | 56 | 1014.7 |
| 20260508131556 | 70 | 14 | 1.0 | 4.0 | 0.02 | 1.23 | 0.02 | 55 | 1014.8 |
| 20260508130553 | 70 | 318 | 1.0 | 7.0 | 0.02 | 1.23 | 0.02 | 56 | 1015.1 |
| 20260508125551 | 68 | 21 | 1.0 | 4.0 | 0.02 | 1.23 | 0.02 | 61 | 1015.3 |
| 20260508124548 | 67 | 67 | 26.0 | 52.0 | 0.02 | 1.23 | 0.02 | 81 | 1015.4 |
| 20260508123545 | 68 | 293 | 1.0 | 2.0 | 0.02 | 1.23 | 0.02 | 61 | 1015.5 |
| 20260508122543 | 0 | 0.0 | 0.0 | 0.00 | 1.20 | 0.00 | 1015.7 | ||
| 20260508121540 | 0 | 0.0 | 0.0 | 0.00 | 1.20 | 0.00 | 1015.8 | ||
| 20260508120537 | 0 | 0.0 | 0.0 | 0.00 | 1.20 | 0.00 | 1016.0 | ||
| 20260508115555 | 0 | 0.0 | 0.0 | 0.00 | 1.20 | 0.00 | 1016.1 | ||
| 20260508114552 | 0 | 0.0 | 0.0 | 0.00 | 1.20 | 0.00 | 1016.3 | ||
| 20260508113550 | 0 | 0.0 | 0.0 | 0.00 | 1.20 | 0.00 | 1016.4 | ||
| 20260508112527 | 0 | 0.0 | 0.0 | 0.00 | 1.20 | 0.00 | 1016.6 | ||
| 20260508111524 | 0 | 0.0 | 0.0 | 0.00 | 1.20 | 0.00 | 1016.6 | ||
| 20260508110542 | 0 | 0.0 | 0.0 | 0.00 | 1.20 | 0.00 | 1016.4 | ||
| 20260508105519 | 0 | 0.0 | 0.0 | 0.00 | 1.20 | 0.00 | 1016.4 | ||
| 20260508104516 | 0 | 0.0 | 0.0 | 0.00 | 1.20 | 0.00 | 1016.0 | ||
| 20260508103614 | 0 | 0.0 | 0.0 | 0.00 | 1.20 | 0.00 | 1016.0 | ||
| 20260508102611 | 0 | 0.0 | 0.0 | 0.00 | 1.20 | 0.00 | 1015.8 | ||
| 20260508101609 | 59 | 338 | 2.0 | 4.0 | 0.00 | 1.20 | 0.00 | 85 | 1015.5 |
| 20260508100606 | 59 | 338 | 2.0 | 4.0 | 0.00 | 1.20 | 0.00 | 85 | 1016.1 |
| 20260508095603 | 60 | 262 | 1.0 | 2.0 | 0.00 | 1.20 | 0.00 | 80 | 1016.9 |
| 20260508094601 | 60 | 270 | 1.0 | 2.0 | 0.00 | 1.20 | 0.00 | 78 | 1016.8 |
| 20260508093558 | 60 | 0.0 | 0.0 | 0.00 | 1.20 | 0.00 | 75 | 1016.3 | |
| 20260508092556 | 0 | 0.0 | 0.0 | 0.00 | 1.20 | 0.00 | 1016.2 | ||
| 20260508091553 | 0 | 0.0 | 0.0 | 0.00 | 1.20 | 0.00 | 1016.2 | ||
| 20260508090550 | 0 | 0.0 | 0.0 | 0.00 | 1.20 | 0.00 | 1016.2 | ||
| 20260508085608 | 0 | 0.0 | 0.0 | 0.00 | 1.20 | 0.00 | 1016.0 | ||
| 20260508084605 | 61 | 0.0 | 0.0 | 0.00 | 1.20 | 0.00 | 74 | 1016.1 | |
| 20260508083603 | 0 | 0.0 | 0.0 | 0.00 | 1.20 | 0.00 | 1015.9 | ||
| 20260508082540 | 0 | 0.0 | 0.0 | 0.00 | 1.20 | 0.00 | 1015.9 | ||
| 20260508081537 | 0 | 0.0 | 0.0 | 0.00 | 1.20 | 0.00 | 1015.7 | ||
| 20260508080535 | 0 | 0.0 | 0.0 | 0.00 | 1.20 | 0.00 | 1015.7 | ||
| 20260508075532 | 0 | 0.0 | 0.0 | 0.00 | 1.20 | 0.00 | 1015.5 | ||
| 20260508074529 | 0 | 0.0 | 0.0 | 0.00 | 1.20 | 0.00 | 1015.3 | ||
| 20260508073546 | 0 | 0.0 | 0.0 | 0.00 | 1.20 | 0.00 | 1015.5 | ||
| 20260508072544 | 0 | 0.0 | 0.0 | 0.00 | 1.20 | 0.00 | 1015.4 | ||
| 20260508071521 | 0 | 0.0 | 0.0 | 0.00 | 1.20 | 0.00 | 1015.1 | ||
| 20260508070519 | 0 | 0.0 | 0.0 | 0.00 | 1.20 | 0.00 | 1015.0 | ||
| 20260508065517 | 59 | 0.0 | 0.0 | 0.00 | 1.20 | 0.00 | 76 | 1015.1 | |
| 20260508064614 | 58 | 0.0 | 0.0 | 0.00 | 1.20 | 0.00 | 76 | 1015.0 | |
| 20260508063611 | 58 | 68 | 0.0 | 2.0 | 0.00 | 1.20 | 0.00 | 77 | 1014.7 |
| 20260508062609 | 57 | 0.0 | 0.0 | 0.00 | 1.20 | 0.00 | 79 | 1014.7 | |
| 20260508061606 | 57 | 0.0 | 0.0 | 0.00 | 1.20 | 0.00 | 78 | 1014.8 | |
| 20260508060603 | 56 | 0.0 | 0.0 | 0.00 | 1.20 | 0.00 | 79 | 1014.8 | |
| 20260508055601 | 0 | 0.0 | 0.0 | 0.00 | 1.20 | 0.00 | 1014.7 | ||
| 20260508054558 | 0 | 0.0 | 0.0 | 0.00 | 1.20 | 0.00 | 1014.6 | ||
| 20260508053555 | 0 | 0.0 | 0.0 | 0.00 | 1.20 | 0.00 | 1014.5 | ||
| 20260508052613 | 0 | 0.0 | 0.0 | 0.00 | 1.20 | 0.00 | 1014.3 | ||
| 20260508051610 | 53 | 0.0 | 0.0 | 0.00 | 1.20 | 0.00 | 86 | 1014.2 | |
| 20260508050548 | 0 | 0.0 | 0.0 | 0.00 | 1.20 | 0.00 | 1014.1 | ||
| 20260508045545 | 0 | 0.0 | 0.0 | 0.00 | 1.20 | 0.00 | 1014.2 | ||
| 20260508044543 | 0 | 0.0 | 0.0 | 0.00 | 1.20 | 0.00 | 1014.2 | ||
| 20260508043540 | 57 | 0.0 | 0.0 | 0.00 | 1.20 | 0.00 | 75 | 1013.8 | |
| 20260508042537 | 56 | 0.0 | 0.0 | 0.00 | 1.20 | 0.00 | 78 | 1013.5 | |
| 20260508041535 | 55 | 0.0 | 2.0 | 0.00 | 1.20 | 0.00 | 81 | 1013.4 | |
| 20260508040532 | 55 | 0.0 | 0.0 | 0.00 | 1.20 | 0.00 | 82 | 1013.4 | |
| 20260508035529 | 55 | 0.0 | 0.0 | 0.00 | 1.20 | 0.00 | 84 | 1013.4 | |
| 20260508034527 | 55 | 0.0 | 2.0 | 0.00 | 1.20 | 0.00 | 83 | 1013.5 | |
| 20260508033524 | 56 | 90 | 0.0 | 2.0 | 0.00 | 1.20 | 0.00 | 81 | 1013.7 |
| 20260508032602 | 55 | 113 | 0.0 | 2.0 | 0.00 | 1.20 | 0.00 | 82 | 1013.9 |
| 20260508031519 | 55 | 117 | 1.0 | 2.0 | 0.00 | 1.20 | 0.00 | 84 | 1013.9 |
| 20260508030536 | 55 | 129 | 1.0 | 2.0 | 0.00 | 1.20 | 0.00 | 85 | 1013.8 |
| 20260508025614 | 55 | 122 | 1.0 | 2.0 | 0.00 | 1.20 | 0.00 | 86 | 1013.8 |
| 20260508024631 | 54 | 0.0 | 0.0 | 0.00 | 1.20 | 0.00 | 87 | 1013.8 | |
| 20260508023608 | 54 | 0.0 | 0.0 | 0.00 | 1.20 | 0.00 | 86 | 1013.8 | |
| 20260508022626 | 54 | 0.0 | 0.0 | 0.00 | 1.20 | 0.00 | 86 | 1013.9 | |
| 20260508021603 | 55 | 0.0 | 0.0 | 0.00 | 1.20 | 0.00 | 85 | 1013.9 | |
| 20260508020620 | 55 | 0.0 | 0.0 | 0.00 | 1.20 | 0.00 | 85 | 1013.9 | |
| 20260508015618 | 55 | 23 | 0.0 | 2.0 | 0.00 | 1.20 | 0.00 | 87 | 1014.2 |
| 20260508014556 | 54 | 23 | 0.0 | 2.0 | 0.00 | 1.20 | 0.00 | 88 | 1014.1 |
| 20260508013553 | 54 | 23 | 0.0 | 2.0 | 0.00 | 1.20 | 0.00 | 88 | 1014.5 |
| 20260508012550 | 54 | 0.0 | 0.0 | 0.00 | 1.20 | 0.00 | 89 | 1014.7 | |
| 20260508011607 | 54 | 0.0 | 2.0 | 0.00 | 1.20 | 0.00 | 91 | 1014.8 | |
| 20260508010545 | 54 | 17 | 1.0 | 4.0 | 0.00 | 1.20 | 0.00 | 94 | 1014.9 |
| 20260508005542 | 53 | 21 | 1.0 | 4.0 | 0.00 | 1.20 | 0.00 | 96 | 1015.1 |
| 20260508004539 | 52 | 23 | 1.0 | 4.0 | 0.00 | 1.20 | 0.00 | 97 | 1015.3 |
| 20260508003557 | 52 | 23 | 1.0 | 4.0 | 0.00 | 1.20 | 0.00 | 98 | 1015.3 |
| 20260508002534 | 52 | 19 | 2.0 | 4.0 | 0.00 | 1.20 | 0.00 | 98 | 1015.4 |
| 20260508001531 | 52 | 18 | 2.0 | 4.0 | 0.00 | 1.20 | 0.00 | 98 | 1015.6 |
| 20260508000529 | 52 | 19 | 2.0 | 4.0 | 0.00 | 1.20 | 0.00 | 98 | 1015.6 |
| 20260507235526 | 52 | 0.0 | 0.0 | 0.00 | 1.20 | 0.00 | 98 | 1015.7 | |
| 20260507234524 | 53 | 0.0 | 0.0 | 0.00 | 1.20 | 0.00 | 98 | 1015.7 | |
| 20260507233521 | 53 | 0.0 | 0.0 | 0.00 | 1.20 | 0.00 | 98 | 1015.7 | |
| 20260507232519 | 53 | 270 | 1.0 | 2.0 | 0.00 | 1.20 | 0.00 | 98 | 1015.8 |
| 20260507231516 | 53 | 0.0 | 0.0 | 0.00 | 1.20 | 0.00 | 98 | 1015.8 | |
| 20260507230614 | 53 | 0.0 | 0.0 | 0.00 | 1.20 | 0.00 | 98 | 1015.8 | |
| 20260507225631 | 53 | 0.0 | 0.0 | 0.00 | 1.20 | 0.00 | 98 | 1015.6 | |
| 20260507224608 | 53 | 43 | 0.0 | 2.0 | 0.00 | 1.20 | 0.00 | 98 | 1015.7 |
| 20260507223606 | 54 | 0.0 | 0.0 | 0.00 | 1.20 | 0.00 | 98 | 1015.4 | |
| 20260507222603 | 54 | 0.0 | 0.0 | 0.00 | 1.20 | 0.00 | 98 | 1015.2 | |
| 20260507221601 | 54 | 0.0 | 0.0 | 0.00 | 1.20 | 0.00 | 98 | 1015.4 | |
| 20260507220558 | 55 | 0.0 | 0.0 | 0.00 | 1.20 | 0.00 | 98 | 1015.3 | |
| 20260507215555 | 55 | 0.0 | 0.0 | 0.00 | 1.20 | 1.20 | 99 | 1015.4 | |
| 20260507214553 | 55 | 0.0 | 0.0 | 0.00 | 1.20 | 1.20 | 99 | 1015.5 | |
| 20260507213610 | 55 | 0.0 | 0.0 | 0.00 | 1.20 | 1.20 | 99 | 1015.5 | |
| 20260507212547 | 55 | 0.0 | 0.0 | 0.00 | 1.20 | 1.20 | 99 | 1015.5 | |
| 20260507211605 | 55 | 0.0 | 0.0 | 0.00 | 1.20 | 1.20 | 98 | 1015.4 | |
| 20260507210542 | 56 | 0.0 | 0.0 | 0.00 | 1.20 | 1.20 | 98 | 1015.3 | |
| 20260507205540 | 56 | 0.0 | 0.0 | 0.00 | 1.20 | 1.20 | 98 | 1015.3 | |
| 20260507204537 | 56 | 0 | 0.0 | 2.0 | 0.00 | 1.20 | 1.20 | 98 | 1015.3 |
| 20260507203534 | 56 | 0.0 | 2.0 | 0.00 | 1.20 | 1.20 | 98 | 1015.3 | |
| 20260507202532 | 56 | 9 | 1.0 | 4.0 | 0.01 | 1.20 | 1.20 | 98 | 1015.3 |
| 20260507201529 | 56 | 14 | 1.0 | 4.0 | 0.01 | 1.20 | 1.20 | 98 | 1015.1 |
| 20260507200527 | 56 | 0.0 | 0.0 | 0.01 | 1.20 | 1.20 | 98 | 1015.0 | |
| 20260507195524 | 56 | 0.0 | 2.0 | 0.01 | 1.20 | 1.20 | 98 | 1014.9 | |
| 20260507194521 | 56 | 0.0 | 2.0 | 0.02 | 1.20 | 1.20 | 98 | 1014.8 |